This demonstration page uses our WeatherBlox Daily Observations layout. Learn more.

Left ArrowRight Arrow

Hourly Observations for October 2, 2018

Temp ( °F °C ) Dew Point ( °F °C ) Humidity (%) Winds ( mph kmh ) Pressure ( in mb ) Visibility ( mi km ) Precip ( " mm )
12:57 am 00:57 Cloudy 51 10.6 49 9.4 92 92 SE 8 13 30.12 1020 10 16 0.00 0.00
1:57 am 01:57 Cloudy 51 10.6 49 9.4 92 92 SE 9 15 30.11 1020 10 16 0.00 0.00
2:57 am 02:57 Cloudy 50 10 49 9.4 96 96 SSE 8 13 30.10 1019 10 16 0.00 0.00
3:34 am 03:34 Cloudy 50 10 48 9 94 94 SSE 12 19 30.09 1019 10 16 0.00 0.00
3:57 am 03:57 Cloudy 50 10 49 9.4 96 96 SE 12 19 30.07 1018 10 16 0.00 0.00
4:57 am 04:57 Cloudy 50 10 49 9.4 96 96 SSE 8 13 30.08 1019 10 16 0.00 0.00
5:57 am 05:57 Cloudy 50 10 49 9.4 96 96 SE 6 9 30.07 1018 7 11 0.00 0.00
6:57 am 06:57 Cloudy with Mist and Fog 50 10 49 9.4 96 96 SSE 7 11 30.07 1018 6 10 0.00 0.00
7:53 am 07:53 Cloudy with Mist and Fog 50 10 48 9 94 94 E 5 7 30.06 1018 2 3 0.00 0.00
7:57 am 07:57 Cloudy with Mist and Fog 50 10 50 10 100 100 E 5 7 30.07 1018 2 2 0.00 0.00
8:10 am 08:10 Cloudy with Mist and Fog 50 10 50 10 100 100 E 6 9 30.06 1018 1 1 0.00 0.00
8:19 am 08:19 Cloudy with Mist and Fog 50 10 50 10 100 100 ESE 6 9 30.06 1018 1 2 0.00 0.00
8:25 am 08:25 Cloudy with Mist and Fog 50 10 50 10 100 100 ESE 6 9 30.06 1018 3 5 0.00 0.00
8:40 am 08:40 Cloudy with Mist and Fog 50 10 50 10 100 100 ESE 5 7 30.06 1018 2 3 0.00 0.00
8:57 am 08:57 Cloudy with Mist and Fog 50 10 50 10 100 100 ESE 6 9 30.07 1018 1 2 0.00 0.00
9:26 am 09:26 Cloudy with Mist and Fog 52 11 50 10 94 94 ESE 6 9 30.06 1018 2 3 0.00 0.00
9:57 am 09:57 Cloudy with Mist and Fog 51 10.6 51 10.6 100 100 ESE 7 11 30.05 1018 2 3 0.00 0.00
10:14 am 10:14 Cloudy with Mist and Fog 52 11 52 11 100 100 ESE 7 11 30.06 1018 3 4 0.00 0.00
10:38 am 10:38 Cloudy with Mist and Fog 52 11 52 11 100 100 ESE 7 11 30.06 1018 2 3 0.00 0.00
10:52 am 10:52 Cloudy with Mist and Fog 52 11 52 11 100 100 SE 9 15 30.06 1018 2 3 0.00 0.00
10:57 am 10:57 Cloudy with Mist and Fog 52 11.1 51 10.6 97 97 SE 8 13 30.05 1018 2 3 0.00 0.00
11:16 am 11:16 Cloudy with Mist and Fog 52 11 52 11 100 100 SE 8 13 30.03 1017 2 2 0.00 0.00
11:37 am 11:37 Cloudy with Mist and Fog 54 12 52 11 94 94 SSE 7 11 30.03 1017 1 2 0.00 0.00
11:57 am 11:57 Cloudy with Mist and Fog 53 11.7 52 11.1 96 96 SE 8 13 30.02 1017 1 2 0.00 0.00
12:31 pm 12:31 Cloudy with Mist and Fog 54 12 54 12 100 100 SSE 7 11 30.03 1017 3 4 0.00 0.00
12:45 pm 12:45 Cloudy with Mist and Fog 54 12 54 12 100 100 S 8 13 30.03 1017 4 6 0.00 0.00
12:57 pm 12:57 Cloudy with Mist and Fog 55 12.8 54 12.2 96 96 SSE 8 13 30.00 1016 5 8 0.00 0.00
1:57 pm 13:57 Cloudy with Light Rain 57 13.9 55 12.8 93 93 S 10 17 29.97 1015 10 16 0.00 0.03
2:05 pm 14:05 Cloudy with Light Rain 57 14 55 13 94 94 S 10 17 29.94 1014 10 16 0.00 0.03
2:57 pm 14:57 Cloudy 59 15 56 13.3 90 90 S 13 20 29.93 1014 10 16 0.00 0.03
3:57 pm 15:57 Cloudy 60 15.6 57 13.9 90 90 SSW 13 20 29.91 1013 10 16 0.00 0.00
4:45 pm 16:45 Mostly Sunny 61 16 57 14 88 88 S 7 11 29.85 1011 10 16 0.00 0.00
4:57 pm 16:57 Sunny 62 16.7 58 14.4 86 86 S 7 11 29.88 1012 10 16 0.00 0.00
5:57 pm 17:57 Sunny 65 18.3 59 15 81 81 Calm 29.85 1011 10 16 0.00 0.00
6:57 pm 18:57 Sunny 67 19.4 60 15.6 79 79 Calm 29.84 1011 10 16 0.00 0.00
7:57 pm 19:57 Clear 61 16.1 58 14.4 90 90 E 3 6 29.84 1011 10 16 0.00 0.00
8:57 pm 20:57 Clear 59 15 57 13.9 93 93 ENE 7 11 29.84 1010 10 16 0.00 0.00
9:57 pm 21:57 Clear 59 15 58 14.4 96 96 NE 3 6 29.82 1010 10 16 0.00 0.00
10:57 pm 22:57 Clear 60 15.6 58 14.4 93 93 ESE 6 9 29.80 1009 10 16 0.00 0.00
11:57 pm 23:57 Clear 61 16.1 59 15 93 93 Calm 29.78 1008 10 16 0.00 0.00

Powered by AerisWeather